Location: Unspecified
(56.5167°N, 0.0000°E)
Time: 14:50:49
(UTC+02:00)

Cosmos 2058 - Visible Passes

Search period start: 04 October 2022 00:00
Search period end: 14 October 2022 00:00
Orbit: 560 x 579 km, 82.5° (Epoch: 04 October)

Date Brightness Start Highest point End Pass type
(mag) Time Alt. Az. Time Alt. Az. Time Alt. Az.
04 Oct 6.1 01:16:19 10° NNW 01:16:40 12° NNW 01:16:40 12° NNW visible
04 Oct 5.6 23:41:23 10° N 23:42:15 15° N 23:42:15 15° N visible
05 Oct 6.1 01:18:11 10° NNW 01:18:22 11° NNW 01:18:22 11° NNW visible
05 Oct 5.6 23:43:05 10° N 23:43:57 15° N 23:43:57 15° N visible
06 Oct 5.6 23:44:48 10° N 23:45:38 15° N 23:45:38 15° N visible
07 Oct 5.7 23:46:32 10° N 23:47:20 15° N 23:47:20 15° N visible
08 Oct 5.7 23:48:16 10° N 23:49:02 15° N 23:49:02 15° N visible
09 Oct 5.5 22:14:18 10° NNE 22:14:37 11° NNE 22:14:37 11° NNE visible
09 Oct 5.8 23:50:02 10° N 23:50:44 15° N 23:50:44 15° N visible
10 Oct 5.5 22:15:48 10° NNE 22:16:19 12° NNE 22:16:19 12° NNE visible
10 Oct 5.8 23:51:47 10° NNW 23:52:26 14° NNW 23:52:26 14° NNW visible
11 Oct 5.4 22:17:21 10° NNE 22:18:01 13° NNE 22:18:01 13° NNE visible
11 Oct 5.9 23:53:33 10° NNW 23:54:08 14° NNW 23:54:08 14° NNW visible
12 Oct 5.4 22:18:55 10° N 22:19:43 14° NNE 22:19:43 14° NNE visible
12 Oct 6.0 23:55:20 10° NNW 23:55:50 13° NNW 23:55:50 13° NNW visible
13 Oct 5.3 22:20:32 10° N 22:21:26 15° NNE 22:21:26 15° NNE visible
